Content
SEND FEEDBACK

Daily
Averages
Monthly
Summary
United States of America

BIG WATER, UTAH


Home > North America > United States > Utah
Elevation: 4166 feet     Latitude: 37 05N     Longitude: 111 40W

WEATHER
 
SELECT A DAY
Number of Records: 197,104;   Date Range: 1/1/95 - 10/16/14
 
SHARE

PRINT THIS DATA

[ ← Previous Day ]
WEATHER ALMANAC - MARCH 26, 2013
[ Next Day → ]
[ °C ]   °F
Weather ElementAverageHighLow
Temperature53.3 °F64 °F (3:53 pm)43 °F (5:53 am)
Dewpoint15.4 °F19 °F (8:53 am)10.9 °F (9:53 pm)
Humidity23.2 %33 % (8:53 am)14 % (9:53 pm)
Barometer29.88 in29.97 in (1:53 am)29.78 in (4:53 pm)
Wind Speed2.5 mph6.9 mph (12:53 pm)
Weather ElementAverage
Visibility10 mi
Wind DirectionE (84.8 °)

Weather ElementTotal
Precipitation---
Heating Degree Days11.5 (Base 65)
Growing Degree Days3.5 (Base 50)
Averaged from 23 records on March 26, 2013
WEATHER CONDITIONS BREAKOUT
WIND DIRECTION BREAKOUT
WEATHER BY HOUR - MARCH 26, 2013
[ °C ]   °F
Local TimeTemperatureDewpointHumidityBarometerVisibilityWind DirectionWind SpeedGust SpeedPrecipitationEventsConditions
1:53 AM45.0 °F16.0 °F31 %29.97 in10.0 miSW (230°)3.5 mphClear
2:53 AM44.1 °F15.1 °F31 %29.95 in10.0 miSSE (150°)3.5 mphClear
3:53 AM44.1 °F15.1 °F31 %29.93 in10.0 miCalmClear
4:53 AM44.1 °F15.1 °F31 %29.94 in10.0 miWest (260°)3.5 mphClear
5:53 AM43.0 °F15.1 °F32 %29.95 in10.0 miCalmClear
6:53 AM43.0 °F15.1 °F32 %29.97 in10.0 miCalmClear
7:53 AM46.9 °F14.0 °F27 %29.96 in10.0 miCalmClear
8:53 AM46.9 °F19.0 °F33 %29.96 in10.0 miCalmClear
9:53 AM50.0 °F15.1 °F25 %29.96 in10.0 miNorth (350°)3.5 mphClear
10:53 AM51.1 °F15.1 °F24 %29.94 in10.0 miCalmClear
11:53 AM55.0 °F15.1 °F21 %29.93 in10.0 miCalmClear
12:53 PM57.0 °F14.0 °F18 %29.90 in10.0 miNNE (30°)6.9 mphClear
1:53 PM60.1 °F15.1 °F17 %29.86 in10.0 miNE (40°)3.5 mphClear
2:53 PM62.1 °F15.1 °F16 %29.83 in10.0 miVariable4.6 mphClear
3:53 PM64.0 °F15.1 °F15 %29.79 in10.0 miEast (80°)4.6 mphClear
4:53 PM63.0 °F17.1 °F17 %29.78 in10.0 miNorth (10°)3.5 mphClear
5:53 PM63.0 °F16.0 °F16 %29.78 in10.0 miCalmClear
6:53 PM60.1 °F17.1 °F19 %29.78 in10.0 miSSE (150°)4.6 mphClear
7:53 PM57.0 °F18.0 °F22 %29.79 in10.0 miCalmClear
8:53 PM57.9 °F18.0 °F21 %29.81 in10.0 miSSW (210°)4.6 mphClear
9:53 PM60.1 °F10.9 °F14 %29.82 in10.0 miSW (230°)3.5 mphMostly Cloudy
10:53 PM54.0 °F14.0 °F21 %29.83 in10.0 miCalmMostly Cloudy
11:53 PM54.0 °F12.9 °F20 %29.83 in10.0 miSSW (210°)6.9 mphClear
Hourly data recorded from KPGA, located miles away from Big Water, Utah







STORIES FROM OUR PARTNERS